Cedar Bluff, VA

6:39 PM EST on February 09, 2016 (GMT -0500)
Tazewell County

Weather History for KJFZ - September, 2012

Change the Weather History Date:

Thursday, September 6, 2012

  Actual Average (KBLF) Record (KBLF)
Temperature  
Mean Temperature 73 °F 69 °F  
Max Temperature 80 °F 78 °F 93 °F (2007)
Min Temperature 66 °F 60 °F 44 °F (1972)
Degree Days  
Heating Degree Days 0 1  
Month to date heating degree days 4  
Since 1 July heating degree days 10  
Cooling Degree Days 8 5  
Month to date cooling degree days 32  
Year to date cooling degree days 766  
Growing Degree Days 23 (Base 50)    
Moisture  
Dew Point 69 °F    
Average Humidity 95    
Maximum Humidity 100    
Minimum Humidity 74    
Precipitation  
Precipitation 0.00 in 0.10 in 2.53 in (1996)
Month to date precipitation 0.58  
Year to date precipitation 28.97  
Snow  
Snow 0.00 in - - ()
Month to date snowfall  
Since 1 July snowfall  
Since 1 September snowfall  
Snow Depth -    
Sea Level Pressure  
Sea Level Pressure 30.03 in    
Wind  
Wind Speed 3 mph (West)    
Max Wind Speed 7 mph    
Max Gust Speed -    
Visibility 9 miles    
Events      
T = Trace of Precipitation, MM = Missing Value Source: NWS Daily Summary

Daily Weather History Graph

Daily Weather History Graph

Search for Another Location

Airport or City:

Trip Planner

Search our weather history database for the weather conditions in past years. The results will help you decide how hot, cold, wet, or windy it might be!

Date:

Astronomy

Sep. 06, 2012 Rise Set
Actual Time 7:02 AM EDT 7:47 PM EDT
Civil Twilight 6:36 AM EDT 8:13 PM EDT
Nautical Twilight 6:04 AM EDT 8:45 PM EDT
Astronomical Twilight 5:32 AM EDT 9:16 PM EDT
Moon 11:07 PM EDT (9/6) 12:50 PM EDT (9/6)
Length of Visible Light 13h 37m
Length of Day
12h 45m
Waning Gibbous, 67% of the Moon is Illuminated
Sep 6
Waning Gibbous
Sep 8
Last Quarter
Sep 15
New
Sep 22
First Quarter
Sep 29
Full

Hourly Weather History & Observations

Time (EDT) Temp. Heat Index Dew Point Humidity Pressure Visibility Wind Dir Wind Speed Gust Speed Precip Events Conditions
12:55 AM 69.8 °F - 69.8 °F 100% 29.97 in 3.0 mi Calm Calm - N/A   Scattered Clouds
1:15 AM 69.8 °F - 69.8 °F 100% 29.97 in 2.5 mi SE 3.5 mph - N/A   Scattered Clouds
1:35 AM 69.8 °F - 69.8 °F 100% 29.99 in 0.2 mi SSE 3.5 mph - N/A   Overcast
1:55 AM 68.0 °F - 68.0 °F 100% 29.99 in 2.5 mi South 5.8 mph - N/A   Mostly Cloudy
2:15 AM 66.2 °F - 66.2 °F 100% 29.98 in 10.0 mi Calm Calm - N/A   Clear
2:55 AM 68.0 °F - 68.0 °F 100% 29.97 in 10.0 mi Calm Calm - N/A   Partly Cloudy
3:15 AM 66.2 °F - 66.2 °F 100% 29.97 in 10.0 mi Calm Calm - N/A   Mostly Cloudy
3:35 AM 66.2 °F - 66.2 °F 100% 29.97 in 7.0 mi Calm Calm - N/A   Mostly Cloudy
3:55 AM 66.2 °F - 66.2 °F 100% 29.97 in 10.0 mi Calm Calm - N/A   Partly Cloudy
4:35 AM 66.2 °F - 66.2 °F 100% 29.97 in 10.0 mi Calm Calm - N/A   Mostly Cloudy
4:55 AM 66.2 °F - 66.2 °F 100% 29.97 in 10.0 mi West 3.5 mph - N/A   Mostly Cloudy
5:15 AM 68.0 °F - 68.0 °F 100% 29.97 in 10.0 mi WSW 3.5 mph - N/A   Partly Cloudy
5:35 AM 68.0 °F - 68.0 °F 100% 29.98 in 10.0 mi Variable 4.6 mph - N/A   Mostly Cloudy
5:55 AM 68.0 °F - 68.0 °F 100% 29.98 in 10.0 mi West 4.6 mph - N/A   Mostly Cloudy
6:15 AM 68.0 °F - 68.0 °F 100% 29.99 in 10.0 mi Variable 3.5 mph - N/A   Mostly Cloudy
6:35 AM 68.0 °F - 68.0 °F 100% 30.00 in 10.0 mi West 6.9 mph - N/A   Mostly Cloudy
6:55 AM 66.2 °F - 66.2 °F 100% 30.01 in 8.0 mi WSW 4.6 mph - N/A   Partly Cloudy
7:15 AM 66.2 °F - 66.2 °F 100% 30.01 in 5.0 mi Variable 4.6 mph - N/A   Unknown
7:35 AM 66.2 °F - 66.2 °F 100% 30.02 in 6.0 mi Variable 4.6 mph - N/A   Unknown
7:55 AM 66.2 °F - 66.2 °F 100% 30.03 in 10.0 mi West 4.6 mph - N/A   Unknown
8:15 AM 66.2 °F - 66.2 °F 100% 30.03 in 10.0 mi Variable 4.6 mph - N/A   Clear
8:35 AM 66.2 °F - 66.2 °F 100% 30.03 in 9.0 mi West 3.5 mph - N/A   Unknown
8:55 AM 68.0 °F - 68.0 °F 100% 30.03 in 10.0 mi Calm Calm - N/A   Unknown
9:15 AM 68.0 °F - 68.0 °F 100% 30.04 in 10.0 mi Calm Calm - N/A   Unknown
9:35 AM 69.8 °F - 69.8 °F 100% 30.04 in 10.0 mi West 3.5 mph - N/A   Unknown
9:55 AM 69.8 °F - 69.8 °F 100% 30.04 in 10.0 mi West 4.6 mph - N/A   Scattered Clouds
10:15 AM 69.8 °F - 69.8 °F 100% 30.05 in 10.0 mi Variable 3.5 mph - N/A   Mostly Cloudy
10:35 AM 69.8 °F - 69.8 °F 100% 30.06 in 10.0 mi WSW 4.6 mph - N/A   Mostly Cloudy
10:55 AM 69.8 °F - 69.8 °F 100% 30.07 in 10.0 mi West 3.5 mph - N/A   Scattered Clouds
11:15 AM 69.8 °F - 69.8 °F 100% 30.07 in 7.0 mi Calm Calm - N/A   Unknown
11:35 AM 71.6 °F - 71.6 °F 100% 30.07 in 10.0 mi Variable 3.5 mph - N/A   Unknown
11:55 AM 69.8 °F - 69.8 °F 100% 30.07 in 10.0 mi West 3.5 mph - N/A   Partly Cloudy
12:15 PM 69.8 °F - 69.8 °F 100% 30.07 in 4.0 mi West 4.6 mph - N/A   Partly Cloudy
12:35 PM 69.8 °F - 69.8 °F 100% 30.07 in 10.0 mi WNW 5.8 mph - N/A   Partly Cloudy
12:55 PM 69.8 °F - 69.8 °F 100% 30.07 in 9.0 mi Variable 3.5 mph - N/A   Partly Cloudy
1:15 PM 71.6 °F - 71.6 °F 100% 30.07 in 10.0 mi Variable 3.5 mph - N/A   Unknown
1:35 PM 71.6 °F - 71.6 °F 100% 30.07 in 10.0 mi Variable 3.5 mph - N/A   Partly Cloudy
1:55 PM 73.4 °F - 71.6 °F 94% 30.06 in 10.0 mi WSW 3.5 mph - N/A   Partly Cloudy
2:15 PM 73.4 °F - 71.6 °F 94% 30.05 in 10.0 mi Variable 4.6 mph - N/A   Scattered Clouds
2:35 PM 75.2 °F - 71.6 °F 89% 30.05 in 10.0 mi Calm Calm - N/A   Partly Cloudy
2:55 PM 75.2 °F - 71.6 °F 89% 30.05 in 10.0 mi WSW 6.9 mph - N/A   Partly Cloudy
3:15 PM 77.0 °F - 71.6 °F 83% 30.04 in 10.0 mi Calm Calm - N/A   Partly Cloudy
3:35 PM 78.8 °F - 71.6 °F 78% 30.04 in 10.0 mi West 6.9 mph - N/A   Unknown
3:55 PM 78.8 °F - 73.4 °F 83% 30.03 in 10.0 mi Variable 5.8 mph - N/A   Scattered Clouds
4:15 PM 80.6 °F 84.6 °F 71.6 °F 74% 30.03 in 10.0 mi Variable 4.6 mph - N/A   Scattered Clouds
4:35 PM 80.6 °F 84.6 °F 71.6 °F 74% 30.03 in 10.0 mi WNW 6.9 mph - N/A   Mostly Cloudy
4:55 PM 80.6 °F 84.6 °F 71.6 °F 74% 30.03 in 10.0 mi WNW 5.8 mph - N/A   Scattered Clouds
5:15 PM 78.8 °F - 71.6 °F 78% 30.03 in 10.0 mi WNW 3.5 mph - N/A   Clear
5:35 PM 80.6 °F 84.6 °F 71.6 °F 74% 30.02 in 10.0 mi WNW 5.8 mph - N/A   Scattered Clouds
5:55 PM 80.6 °F 84.6 °F 71.6 °F 74% 30.03 in 10.0 mi WNW 5.8 mph - N/A   Scattered Clouds
6:15 PM 78.8 °F - 71.6 °F 78% 30.02 in 10.0 mi NW 6.9 mph - N/A   Scattered Clouds
6:35 PM 78.8 °F - 71.6 °F 78% 30.03 in 10.0 mi WNW 4.6 mph - N/A   Scattered Clouds
6:55 PM 77.0 °F - 71.6 °F 83% 30.03 in 10.0 mi WNW 4.6 mph - N/A   Partly Cloudy
7:15 PM 75.2 °F - 71.6 °F 89% 30.03 in 10.0 mi WNW 4.6 mph - N/A   Clear
7:35 PM 75.2 °F - 71.6 °F 89% 30.03 in 10.0 mi West 4.6 mph - N/A   Clear
7:55 PM 73.4 °F - 71.6 °F 94% 30.04 in 10.0 mi WNW 4.6 mph - N/A   Clear
8:15 PM 73.4 °F - 69.8 °F 88% 30.04 in 10.0 mi WNW 4.6 mph - N/A   Clear
8:35 PM 71.6 °F - 69.8 °F 94% 30.05 in 10.0 mi NW 3.5 mph - N/A   Clear
8:55 PM 71.6 °F - 69.8 °F 94% 30.06 in 10.0 mi Calm Calm - N/A   Clear
9:15 PM 71.6 °F - 69.8 °F 94% 30.06 in 10.0 mi Calm Calm - N/A   Clear
9:35 PM 69.8 °F - 69.8 °F 100% 30.07 in 10.0 mi Calm Calm - N/A   Clear
9:55 PM 69.8 °F - 69.8 °F 100% 30.07 in 10.0 mi Calm Calm - N/A   Clear
10:15 PM 69.8 °F - 69.8 °F 100% 30.08 in 10.0 mi Calm Calm - N/A   Clear
10:35 PM 71.6 °F - 69.8 °F 94% 30.08 in 10.0 mi Calm Calm - N/A   Clear
11:15 PM 68.0 °F - 68.0 °F 100% 30.08 in 10.0 mi Calm Calm - N/A   Clear
11:35 PM 66.2 °F - 66.2 °F 100% 30.08 in 10.0 mi Calm Calm - N/A   Clear
11:55 PM 68.0 °F - 68.0 °F 100% 30.08 in 10.0 mi Calm Calm - N/A   Clear